Location: Tel Aviv
(32.0670°N, 34.7670°E)
Time: 19:44:47
(UTC+03:00)

Vanguard 2 Rocket - Pass Details

Date: 30 January 2022
Orbit: 553 x 3323 km, 32.9° (Epoch: 24 May)

Event Time Altitude Azimuth Distance (km) Brightness Sun altitude
Exits shadow 02:49:19 87° 36° (NE) 3,054 9.2 -48.1°
Drops below altitude 10° 03:09:50 10° 95° (E) 6,228 11.7 -43.8°
Sets 03:14:28 0° 96° (E) 7,131 12.2 -42.8°
